Current Version              Previous Version:    01  02  03  04  05  06  07  08  09  10  11  12  13  14  15  16  17  18  19  20  21  22  23  24  25  26  27  28  29  30  
   31  32  33  34  35  36  37  38  39  40  41  42  43  44  45  46  47  48  49  50  51  52  53  54  55  56  57  58  59  60  

[Printable]
108
ASUS44 KLUB 162110
RWRTX
WEST TEXAS WEATHER ROUNDUP
NATIONAL WEATHER SERVICE LUBBOCK TX
400 PM CDT TUE SEP 16 2014

NOTE: "FAIR" INDICATES FEW OR NO CLOUDS BELOW 12,000 FEET WITH NO
SIGNIFICANT WEATHER AND/OR OBSTRUCTIONS TO VISIBILITY.

TXZ004-006>008-010-012-014-016-OKZ002-162200-
TEXAS PANHANDLE/OKLAHOMA PANHANDLE

CITY           SKY/WX    TMP DP  RH WIND       PRES   REMARKS
AMARILLO       CLOUDY    77  62  59 S7        30.15F
BORGER         MOSUNNY   79  61  53 SW13G22   30.11F
CANADIAN       MOSUNNY   85  65  50 S6        30.06F
DALHART        MOSUNNY   79  59  50 SW20G25   30.15F
DUMAS          MOSUNNY   77  61  57 S17       30.14F
GUYMON         SUNNY     86  60  41 S17G23    30.05F
HEREFORD       CLOUDY    78  65  63 S8        30.16F
PAMPA          MOSUNNY   79  60  51 SW13      30.13F
PERRYTON       SUNNY     85  59  42 S17       30.08F
$$

TXZ026-029-035-045-048-162200-
SOUTHERN PANHANDLE/SOUTH PLAINS/ROLLING PLAINS

CITY           SKY/WX    TMP DP  RH WIND       PRES   REMARKS
CHILDRESS      PTSUNNY   83  67  58 CALM      30.08F
SEMINOLE       CLOUDY    75  65  72 NW9       30.16F
LUBBOCK        CLOUDY    76  63  64 S13       30.14F
PLAINVIEW      PTSUNNY   80  64  58 SW9       30.13F
SNYDER         CLOUDY    82  66  58 SE5       30.11F
$$

TXZ052-054-060>062-072-078-127-140-154-169-162200-
PERMIAN BASIN/CONCHO VALLEY/BIG COUNTRY/EDWARDS PLATEAU

CITY           SKY/WX    TMP DP  RH WIND       PRES   REMARKS
ABILENE        CLOUDY    87  63  44 SE7       30.06F
BIG SPRING     CLOUDY    82  66  59 CALM      30.12F
BROWNWOOD      LGT RAIN  90  64  43 N7        30.03F
JUNCTION       MOSUNNY   92  63  38 MISG      30.01F
MIDLAND        CLOUDY    81  64  56 S3        30.11F
ODESSA         PTSUNNY   81  63  54 SE3       30.12F
SAN ANGELO     CLOUDY    89  66  46 E8        30.05F
SONORA         MOSUNNY   90  63  40 E7        30.07F
SWEETWATER     PTSUNNY   82  66  59 SE7       30.12F
WINK           PTSUNNY   83  61  47 SE7       30.09F
$$

TXZ055-058-074-075-080-082-162200-
FAR WEST/SOUTHWEST MOUNTAINS/TRANS PECOS

CITY           SKY/WX    TMP DP  RH WIND       PRES   REMARKS
ALPINE         MOSUNNY   79  59  50 E12       30.23F
DRYDEN           N/A     91  64  40 E10       30.04F
EL PASO        PTSUNNY   80  62  54 E12       30.11F
FORT STOCKTON  PTSUNNY   82  62  50 SE12      30.11F
GUADALUPE PASS PTSUNNY   70  60  70 NE22      30.25F
MARFA          MOSUNNY   77  57  50 E9        30.21F
PECOS          PTSUNNY   83  60  45 E9        30.08F
PRESIDIO       CLOUDY    87  60  40 E8        30.05F
$$

TXZ014-016-019-021>030-083-162200
TEXAS TECH WEST TEXAS MESONET/TEXAS PANHANDLE/NORTHERN SOUTH PLAINS

CITY           SKY/WX    TMP DP  RH WIND       PRES   REMARKS
ABERNATHY 5ENE   N/A     76  64  65 W10       30.17F
AMARILLO 9NNE    N/A     78  64  61 S12       30.14F
AMARILLO 7SSE    N/A     78  63  60 SW9       30.16F
AMHERST 1NE      N/A     76  62  61 SW8       30.18F
BOOTLEG 11WNW    N/A     77  58  53 S10G16    30.21F
CANADIAN 6E      N/A     85  65  51 SW10      30.07F
CAPROCK CYN SP   N/A     83  63  51 S9        30.11F
CLARENDON 2WSW   N/A     82  61  49 S7        30.13F
CLAUDE 12SW      N/A     78  64  62 SE5       30.15F
DIMMITT 2NE      N/A     76  62  63 SW10      30.18F
FLOYDADA 2NNE    N/A     80  62  55 S7        30.13F
FRIONA 2NE       N/A     76  60  58 S10       30.19F
GOODLETT 3W      N/A     87  64  46 SE2       30.05F
HART 3N          N/A     78  62  58 SW10      30.17F
HEREFORD 2NW     N/A     77  60  55 SW9       30.19F
MCLEAN 1E        N/A     81  63  53 S10       30.11F
MEMPHIS 1NE      N/A     82  65  55 SE5       30.10F
MULESHOE 2SSW    N/A     77  61  58 S10       30.18F
OLTON 6S         N/A     77  62  59 W7        30.17F
PALO DURO SP     N/A     79  63  58 SE1       30.16F
PAMPA 2E         N/A     78  63  59 SW9G16    30.14F
PLAINVIEW 1S     N/A     80  63  56 SW8       30.15F
SILVERTON 7ESE   N/A     82  63  52 SE7       30.12F
TULIA 2ENE       N/A     80  62  55 SW8       30.16F
TURKEY 2WSW      N/A     85  63  47 S6        30.10F
UMBARGER 3NNE    N/A     78  63  60 SW12      30.17F
$$

TXZ033>036-039>041-045>048-162200
TEXAS TECH WEST TEXAS MESONET/SOUTH PLAINS

CITY           SKY/WX    TMP DP  RH WIND       PRES   REMARKS
AIKEN 3WSW       N/A     81  64  56 S9        30.15F
ANDREWS 2NE      N/A     79  62  57 SE6       30.17F
ANTON 6SSW       N/A     77  64  64 S7        30.16F
BROWNFIELD 2S  RAIN      75  66  74 W7        30.16F
DENVR CTY 7WNW LGT RAIN  66  63  91 W5        30.20F
GAIL 2ESE        N/A     82  65  57 S5        30.11F
LAMESA 2SE       N/A     79  66  64 SW2       30.15F
LEVELLAND 4S   HVY RAIN  69  65  86 SW6       30.18F
LUBBOCK 3WNW     N/A     71  62  74 S13       30.17F
MORTON 1ENE      N/A     75  63  66 SW6       30.19F
ODONNELL 1N      N/A     76  65  68 S9        30.15F
PLAINS 3N        N/A     70  65  84 SW9       30.20F
RALLS 1SE        N/A     78  65  65 S8        30.16F
REESE CENTER     N/A     66  64  91 SE10      30.17F
SEAGRAVES 1SW    N/A     71  67  87 W10       30.18F
SEMINOLE 2NNE    N/A     74  65  74 W8        30.17F
SLATON 2NE       N/A     72  65  79 SW7       30.17S
SNYDER 3E        N/A     75  70  84 N6        30.11F
SUNDOWN 8SW      N/A     68  65  89 W7        30.19F
TAHOKA 3NNE    HVY RAIN  67  63  86 SW13      30.17R
WOLFFORTH 6SSW   N/A     67  66  97 NE2       30.17F
$$

TXZ031-032-036>038-042>044-162200-
TEXAS TECH WEST TEXAS MESONET/ROLLING PLAINS

CITY           SKY/WX    TMP DP  RH WIND       PRES   REMARKS
ASPERMONT 3NE    N/A     81  66  60 S9        30.08S
FLUVANNA 3WNW    N/A     79  63  58 S7        30.13F
GRAHAM 5SSW      N/A     77  64  64 S3        30.13F
GUTHRIE 10WSW    N/A     86  65  49 SE7       30.08F
HASKELL 1NW      N/A     87  62  42 E5        30.06F
JAYTON 1SSE      N/A     76  67  73 SE16      30.08F
KNOX CITY 3NW    N/A     88  60  39 E3        30.06F
LK A HENRY 1NW   N/A     77  68  72 NE9       30.11F
ODELL 4ENE       N/A     86  68  54 E6        30.05F
PADUCAH 10SW     N/A     86  65  48 SE6       30.08F
POST 1NE         N/A     78  63  59 S7        30.12F
RRING SPRGS 3N   N/A     82  65  56 S3        30.11F
SEYMOUR 3NW      N/A     88  65  46 SE8       30.04F
SPUR 1W          N/A     82  64  54 S5        30.10F
WEINERT 2NNE     N/A     87  65  48 W2        30.06F
WHITE RVR 6NE    N/A     78  66  66 S10       30.12F
$$

TXZ052-054-060>062-072-078-127-140-154-169-162200-
TEXAS TECH WEST TEXAS MESONET/PERMIAN BASIN/
CONCHO VALLEY/BIG COUNTRY/EDWARDS PLATEAU

CITY           SKY/WX    TMP DP  RH WIND       PRES   REMARKS
COYANOSA 2N      N/A     88  61  40 E9        30.09F
JUNCTION 1SSW    N/A     90  66  45 NE8       30.03F
MERTZON 3NNE     N/A     87  67  50 NE7       30.08F
SAN ANGELO 7NW   N/A     86  64  48 SE5       30.07F
STRLNG CT 4WSW   N/A     85  60  41 E5        30.10F
ST LAWRNCE 5SW   N/A     80  64  56 SE1       30.11F
SWEETWATR 11SW   N/A     81  66  60 S9        30.12F
WALL 1E          N/A     87  66  49 E7G14     30.07F
$$

TXZ055-058-074-075-080-082-162200-
TEXAS TECH WEST TEXAS MESONET/FAR WEST/SOUTHWEST MOUNTAINS/TRANS PECOS

CITY           SKY/WX    TMP DP  RH WIND       PRES   REMARKS
PRSMN GAP BBNP   N/A     85  64  48 N9        30.07F
GUADLPE MTN NP   N/A     67  58  73 NE10      30.28F
$$